Regional Weather Roundup
Issued by NWS

Home | Current Version | Previous Version | Text Only | Print | Product List | Glossary On
Versions: 1 2 3 4 5 6 7 8 9 10 11 12 13 14 15 16 17 18 19 20 21 22 23 24 25 26 27 28
000
ASUS45 KCYS 270310
RWRWY

WYOMING REGIONAL WEATHER ROUNDUP
NATIONAL WEATHER SERVICE CHEYENNE WY
900 PM MDT THU APR 26 2018

NOTE:  "FAIR" INDICATES FEW OR NO CLOUDS BELOW 12,000 FEET
WITH NO SIGNIFICANT WEATHER AND/OR OBSTRUCTIONS TO VISIBILITY.

WYZ001-270400-
YELLOWSTONE NATIONAL PARK

CITY           SKY/WX    TMP DP  RH WIND       PRES   REMARKS
LK YELLOWSTONE   N/A     32  22  66 NW3       30.29R
W YELLOWSTONE  NOT AVBL

$$
WYZ002>013-054>058-071-098>099-270400-
NORTHERN WYOMING

CITY           SKY/WX    TMP DP  RH WIND       PRES   REMARKS
JACKSON        FAIR      43  19  38 NE5       30.21R
CODY           FAIR      51  24  34 SE7       30.18R
GREYBULL       FAIR      56  32  40 SE3       30.15R
WORLAND        FAIR      47  24  40 SE10      30.16R
SHERIDAN       FAIR      45  35  68 CALM      30.13S
BUFFALO        FAIR      48  30  49 W8        30.18S
GILLETTE       FAIR      41  31  67 W6        30.15R
HULETT         FAIR      52  32  46 SW6       30.15S
NEWCASTLE      FAIR      48  28  46 N7        30.16R

$$
WYZ014>020-022>026-101>103-270400-
CENTRAL WYOMING

CITY           SKY/WX    TMP DP  RH WIND       PRES   REMARKS
BIG PINEY      FAIR      52  10  18 E5        30.23R
PINEDALE       FAIR      48  18  29 CALM      30.24S
DUBOIS         FAIR      46  19  34 SE5       30.25R
LANDER         FAIR      51  22  31 SW5       30.19R
RIVERTON       FAIR      54  21  27 CALM      30.20R
CASPER         FAIR      40  26  57 CALM      30.20R
DOUGLAS        FAIR      48  28  46 CALM      30.20R

$$
WYZ021-027>030-104>119-270400-
SOUTHERN WYOMING

CITY           SKY/WX    TMP DP  RH WIND       PRES   REMARKS
EVANSTON       FAIR      55  13  18 E10       30.21R
KEMMERER       FAIR      52  12  20 SE6       30.24R
FORT BRIDGER   FAIR      51  11  20 E9        30.25R
ROCK SPRINGS   FAIR      52  12  20 E12       30.23R
DIXON          FAIR      46  19  34 NE9       30.27R
RAWLINS        FAIR      44  20  38 NE10      30.25S
SARATOGA       FAIR      46  14  27 CALM      30.27R
LARAMIE        FAIR      44  18  35 N7        30.27R
CHEYENNE       FAIR      48  27  44 CALM      30.26R
TORRINGTON     FAIR      47  32  56 NE6       30.17R
PINE BLUFFS    FAIR      41  28  60 CALM      30.24R

$$




USA.gov is the U.S. government's official web portal to all federal, state and local government web resources and services.